Location: ?????
(55.8833°N, 37.6500°E)
Time: 18:12:04
(UTC+00:00)

Cosmos 540 Rocket - Pass Details

Date: 27 February 2020
Orbit: 739 x 754 km, 74.1° (Epoch: 28 March)

Event Time Altitude Azimuth Distance (km) Brightness Sun altitude
Rises 17:49:11 0° 205° (SSW) 3,176 6.7 -24.3°
Reaches altitude 10° 17:51:31 10° 206° (SSW) 2,259 5.9 -24.6°
Maximum altitude 17:56:39 89° 116° (ESE) 757 3.3 -25.3°
Drops below altitude 10° 18:01:51 10° 28° (NNE) 2,284 5.9 -26.0°
Sets 18:04:13 0° 29° (NNE) 3,215 6.7 -26.3°
